Printer-friendly version

IAU Minor Planet Center

Minor Planet Center

MPEC 2006-M02 : COMET C/2006 HW51 (SIDING SPRING)

The following Minor Planet Electronic Circular may be linked-to from your own Web pages, but must not otherwise be redistributed electronically.


Read MPEC 2006-M01 Read MPEC 2006-M03


M.P.E.C. 2006-M02                                Issued 2006 June 16, 15:27 UT

     The Minor Planet Electronic Circulars contain information on unusual
         minor planets and routine data on comets.  They are published
   on behalf of Commission 20 of the International Astronomical Union by the
          Minor Planet Center, Smithsonian Astrophysical Observatory,
                          Cambridge, MA 02138, U.S.A.

                  Supported in part by the Brinson Foundation
                  Supported in part by the TABASGO Foundation
             Prepared using the Tamkin Foundation Computer Network

                              MPC@CFA.HARVARD.EDU
          URL http://cfa-www.harvard.edu/iau/mpc.html  ISSN 1523-6714

                       COMET C/2006 HW51 (SIDING SPRING)

Observations:
    CK06H51W  C2006 06 06.16840 10 25 14.12 -25 35 57.4          17.5 T EM002673
    CK06H51W  C2006 06 06.17264 10 25 14.48 -25 35 54.2                 EM002673
    CK06H51W  C2006 06 06.17731 10 25 14.94 -25 35 50.4                 EM002673
    CK06H51W  C2006 06 06.18275 10 25 15.38 -25 35 45.5                 EM002673
    CK06H51W  C2006 06 06.41686 10 25 36.62 -25 32 28.2          17.5 T EM002E12
    CK06H51W  C2006 06 06.41738 10 25 36.66 -25 32 27.3          17.4 T EM002E12
    CK06H51W  C2006 06 06.42679 10 25 37.48 -25 32 19.7          17.4 T EM002E12
    CK06H51W  C2006 06 06.42731 10 25 37.56 -25 32 19.6          17.4 T EM002E12
    CK06H51W  C2006 06 06.44653 10 25 39.25 -25 32 03.4          17.3 T EM002E12
    CK06H51W  C2006 06 06.44706 10 25 39.36 -25 32 02.9          17.2 T EM002E12
    CK06H51W  C2006 06 15.41354 10 39 48.74 -23 34 30.1          17.2 T EM002E12
    CK06H51W  C2006 06 15.41838 10 39 49.21 -23 34 25.8          17.4 T EM002E12
    CK06H51W  C2006 06 15.42321 10 39 49.68 -23 34 22.2          17.4 T EM002E12
    CK06H51W  C2006 06 15.42804 10 39 50.14 -23 34 19.0          17.4 T EM002E12

Observer details:
673 Table Mountain Observatory, Wrightwood.  Observer J. Young.  0.61-m f/16
    Cassegrain + CCD.
E12 Siding Spring Survey.  Observer R. H. McNaught.  0.5-m Uppsala Schmidt
    + CCD.

Orbital elements:
    C/2006 HW51 (Siding Spring)
Epoch 2006 Sept. 22.0 TT = JDT 2454000.5
T 2006 Sept. 29.30927 TT                                MPC
q   2.2656535            (2000.0)            P               Q
z  -0.0009850      Peri.  359.95875     -0.66783533     +0.51857474
 +/-0.0000312      Node   228.12854     -0.68268468     -0.71256972
e   1.0022318      Incl.   45.80906     -0.29654273     +0.47257235
Residuals in seconds of arc
060423 E12  0.0   0.1-    060429 E12  0.1-  0.2+    060517 I77  0.2+  0.5-
060423 E12  0.2+  0.4+    060429 E12  0.0   0.2+    060517 I77  0.7-  0.8-
060423 E12  0.3+  0.0     060429 E12  0.1-  0.2+    060517 I77  0.8-  0.1+
060423 E12  0.3-  0.1-    060429 E12  0.0   0.2+    060519 423  0.1-  0.0
060423 E12  0.2-  0.6+    060429 J87  0.0   0.4-    060519 423  0.2-  0.4+
060423 E12  0.3-  0.1+    060429 J87  0.0   0.4-    060519 423  0.5-  0.5-
060423 E12  0.1+  0.1-    060429 J87  0.2-  0.0     060519 423  0.1-  0.1-
060423 E12  0.8-  0.2-    060430 J87  0.3+  0.1-    060519 423  0.2+  0.2-
060424 854  0.9+  0.2-    060430 J87  0.1-  0.4+    060519 423  0.1+  0.2-
060424 854  0.0   0.3+    060430 J87  0.1-  0.3+    060521 E12  0.0   0.4+
060424 854  0.4+  0.7-    060502 423  0.1-  0.2+    060521 E12  0.0   0.2+
060424 423  0.2-  0.1-    060502 423  0.3-  0.2-    060521 E12  0.0   0.0
060424 423  0.1+  0.1+    060502 423  0.1+  0.5-    060521 E12  0.4+  0.1-
060424 423  0.1+  0.0     060502 E12  0.1+  0.1+    060521 808  0.4-  0.3-
060425 423  0.1-  0.1-    060502 E12  0.1-  0.1+    060521 808  0.1-  0.2+
060425 423  0.0   0.0     060502 423  0.3-  0.0     060521 808  0.5+  0.1+
060426 E12  0.2+  0.2-    060502 E12  0.0   0.1+    060527 E12  0.0   0.4+
060426 E12  0.1+  0.2+    060504 428  0.3+  0.2-    060527 E12  0.3-  0.2+
060426 E12  0.1-  0.3-    060504 423  0.9+  0.1-    060527 E12  0.3-  0.2+
060426 E12  0.3+  0.2-    060504 423  0.4-  0.5+    060527 E12  0.1-  0.2+
060426 423  0.4-  0.1-    060504 423  0.4-  0.3+    060604 F65  0.2+  0.2-
060426 423  0.3-  0.2-    060504 428  0.2+  0.3-    060604 F65  0.3+  0.3-
060427 734  0.2-  0.2-    060504 428  0.1+  0.1+    060604 F65  0.1+  0.3-
060427 734  0.0   0.1+    060506 423  0.2+  0.1-    060604 F65  0.1+  0.3-
060427 734  0.0   0.2-    060506 423  0.2+  0.0     060604 F65  0.1+  0.1-
060427 423  0.2-  0.3+    060506 423  0.1-  0.2+    060605 F65  0.3+  0.2-
060427 423  0.4-  0.5-    060506 D35 (1.1-  2.1-)   060605 F65  0.1+  0.3-
060427 E12  0.8-  0.2-    060506 D35  0.8-  0.8-    060605 F65  0.3+  0.3-
060427 423  0.5+  0.8-    060506 D35  0.4-  0.5-    060605 F65  0.3+  0.4-
060427 E12  0.1+  0.4+    060508 D35  1.5+  1.0+    060606 673  0.3+  0.5+
060427 E12  0.0   0.4-    060508 D35 (2.8+  0.2+)   060606 673  0.1+  0.1+
060427 423  0.0   0.0     060509 E12  0.0   0.1-    060606 673  0.6+  0.0
060427 E12  0.1-  0.0     060509 E12  0.2+  0.1+    060606 673  0.0   0.4+
060427 E12  0.3+  0.1+    060509 E12  0.5+  0.1-    060606 E12  0.1-  0.1+
060427 423  0.1-  0.1+    060509 E12  0.4+  0.4+    060606 E12  0.2-  0.6+
060428 H36  0.3+  0.0     060516 E12  0.3-  0.0     060606 E12  0.5-  0.3+
060428 H36  0.1+  1.1+    060516 E12  0.0   0.1+    060606 E12  0.0   0.0
060429 423  0.3+  0.1+    060516 E12  0.0   0.2-    060606 E12  0.5-  0.2+
060429 423  0.2-  0.1+    060516 E12  0.2-  0.3+    060606 E12  0.3+  0.2+
060429 E12  0.1+  0.3+    060517 423  0.0   0.3-    060615 E12  0.1-  0.5-
060429 E12  0.0   0.1+    060517 423  0.3-  0.3+    060615 E12  0.1-  0.2+
060429 E12  0.1+  0.2+    060517 423  0.1+  0.2-    060615 E12  0.1-  0.2+
060429 E12  0.0   0.3+    060517 423  0.0   0.1-    060615 E12  0.3-  0.2-

Ephemeris:
    C/2006 HW51 (Siding Spring)
Date    TT    R. A. (2000) Decl.     Delta      r     Elong.  Phase   m1    m2
2006 06 14    10 37.51   -23 52.2    2.387    2.570    88.6    23.3  17.0
2006 06 24    10 54.36   -21 53.8    2.439    2.520    82.7    23.6  17.0
2006 07 04    11 12.34   -20 11.7    2.498    2.473    76.8    23.6  16.9
2006 07 14    11 31.20   -18 45.2    2.562    2.430    71.1    23.3  16.9
2006 07 24    11 50.79   -17 33.1    2.629    2.392    65.4    22.7  16.9
2006 08 03    12 10.96   -16 34.0    2.699    2.358    59.8    21.8  16.9

     The "original" and "future" barycentric values of 1/a are +0.000054
and +0.000097 (+/- 0.000031) AU^-1, respectively.

Brian G. Marsden             (C) Copyright 2006 MPC           M.P.E.C. 2006-M02

Read MPEC 2006-M01 Read MPEC 2006-M03


Our Web policy. Index to the CBAT/MPC/ICQ pages.


Valid HTML 4.01!